TimeCET,TemperatureF,Dew PointF,Humidity,Sea Level PressureIn,VisibilityMPH,Wind Direction,Wind SpeedMPH,Gust SpeedMPH,PrecipitationIn,Events,Conditions,WindDirDegrees,DateUTC
12:00 AM,41,37,79,30.35,5,North,2.2,,,,Partly Cloudy,350,2013-12-30 23:00:00
1:00 AM,41,37,80,30.34,6,North,4.5,,,,Partly Cloudy,0,2013-12-31 00:00:00
2:00 AM,41,36,78,30.33,8,North,2.2,,,,Partly Cloudy,350,2013-12-31 01:00:00
3:00 AM,40,36,81,30.33,9,North,2.2,,,,Partly Cloudy,350,2013-12-31 02:00:00
4:00 AM,40,35,77,30.32,9,North,4.5,,,,Partly Cloudy,350,2013-12-31 03:00:00
5:00 AM,39,34,77,30.31,12,North,2.2,,,,Partly Cloudy,0,2013-12-31 04:00:00
6:00 AM,39,34,76,30.30,12,NNE,2.2,,,,Partly Cloudy,20,2013-12-31 05:00:00
7:00 AM,37,33,79,30.31,12,East,6.7,,,,Partly Cloudy,90,2013-12-31 06:00:00
8:00 AM,37,33,78,30.32,11,East,4.5,,,,Partly Cloudy,80,2013-12-31 07:00:00
9:00 AM,36,33,87,30.32,2,East,8.9,,,,Mist,80,2013-12-31 08:00:00
10:00 AM,35,34,95,30.33,2,ESE,6.7,,,,Mist,120,2013-12-31 09:00:00
11:00 AM,36,35,92,30.32,2,East,4.5,,,,Mist,80,2013-12-31 10:00:00
12:00 PM,36,35,97,30.31,1,East,4.5,,,,Mist,90,2013-12-31 11:00:00
1:00 PM,37,36,95,30.29,1,East,6.7,,,Rain,Light Drizzle,100,2013-12-31 12:00:00
2:00 PM,37,36,97,30.28,1,East,4.5,,,Rain,Light Drizzle,90,2013-12-31 13:00:00
3:00 PM,38,37,93,30.28,1,East,4.5,,,Rain,Light Drizzle,90,2013-12-31 14:00:00
4:00 PM,38,37,95,30.27,1,East,6.7,,,Rain,Light Drizzle,100,2013-12-31 15:00:00
5:00 PM,38,38,98,30.27,1,East,4.5,,,Rain,Light Drizzle,100,2013-12-31 16:00:00
6:00 PM,39,38,92,30.27,1,ESE,6.7,,,,Mist,110,2013-12-31 17:00:00
7:00 PM,39,37,90,30.28,2,East,4.5,,,,Mist,100,2013-12-31 18:00:00
8:00 PM,38,37,94,30.28,2,East,6.7,,,,Mist,100,2013-12-31 19:00:00
9:00 PM,37,36,94,30.27,2,East,6.7,,,,Mist,100,2013-12-31 20:00:00
10:00 PM,35,34,96,30.27,2,East,6.7,,,,Mist,100,2013-12-31 21:00:00
11:00 PM,35,33,92,30.26,2,ESE,6.7,,,,Mist,120,2013-12-31 22:00:00